Location: Czu?�w
(50.1404°N, 18.9919°E)
Time: 03:39:36
(UTC+00:00)

CZ-4 R/B - Pass Details

Date: 27 October 2020
Orbit: 532 x 598 km, 97.7° (Epoch: 27 November)

Event Time Altitude Azimuth Distance (km) Brightness Sun altitude
Rises 17:23:03 0° 173° (S) 2,702 4.8 -18.8°
Reaches altitude 10° 17:25:12 10° 177° (S) 1,805 3.9 -19.2°
Maximum altitude 17:29:03 61° 259° (WSW) 617 1.8 -19.8°
Drops below altitude 10° 17:32:54 10° 340° (NNW) 1,799 4.2 -20.4°
Sets 17:35:02 0° 344° (NNW) 2,692 5.1 -20.8°
